Regional Weather Roundup
Issued by NWS

Home | Current Version | Previous Version | Text Only | Print | Product List | Glossary On
Versions: 1 2 3 4 5 6 7 8 9 10 11 12 13 14 15 16 17 18 19 20 21 22 23 24 25 26 27 28 29 30 31 32 33 34 35 36 37 38 39 40 41 42 43 44 45 46 47 48 49 50
000
ASUS44 KFWD 242203
RWRTX
NORTH TEXAS HOURLY WEATHER ROUNDUP
NATIONAL WEATHER SERVICE FORT WORTH TX
500 PM CDT MON APR 24 2017

NOTE: "FAIR" INDICATES FEW OR NO CLOUDS BELOW 12,000 FEET WITH NO
SIGNIFICANT WEATHER AND/OR OBSTRUCTIONS TO VISIBILITY.

TXZ118-119-242300-
DALLAS/FORT WORTH METROPLEX

CITY           SKY/WX    TMP DP  RH WIND       PRES   REMARKS
DFW AIRPORT    PTSUNNY   77  50  38 S20       29.71F
DALLAS LOVE    PTSUNNY   78  47  33 S18       29.73F
FTW MEACHAM    MOSUNNY   79  51  37 S18G25    29.70F
DAL-EXECUTIVE  MOSUNNY   76  49  38 S15G23    29.73F
FTW-ALLIANCE   PTSUNNY   77  48  35 S18G25    29.70F
FTW-SPINKS     SUNNY     77  48  36 S15G21    29.74F
ARLINGTON      MOSUNNY   76  49  38 SE14G22   29.73F
GRAND PRAIRIE  SUNNY     75  46  35 SE12G21   29.75F
ADDISON        SUNNY     75  46  35 S14G25    29.72F
MESQUITE       SUNNY     75  48  38 SE14G20   29.75F
LANCASTER      CLOUDY    75  49  41 S12G17    29.75F
$$

TXZ091>094-102>105-117-120-121-131>134-242300-
NORTH CENTRAL TEXAS

CITY           SKY/WX    TMP DP  RH WIND       PRES   REMARKS
SHRMAN/DENISON SUNNY     74  47  38 S16G23    29.73F
GAINESVILLE    CLOUDY    73  49  41 S20G28    29.72F
BOWIE          CLOUDY    77  50  39 SE15G25   29.68F
BRIDGEPORT     SUNNY     77  48  36 S15G23    29.71F
DECATUR        SUNNY     76  49  37 S15G22    29.71F
DENTON         SUNNY     77  50  38 S21G28    29.71F
MCKINNEY       CLOUDY    75  51  43 S18G28    29.73F
BONHAM         SUNNY     73  48  40 S18G24    29.73F
GREENVILLE     MOSUNNY   77  46  33 S14       29.75F
ROCKWALL       MOSUNNY   75  51  43 S14G23    29.75F
TERRELL        CLOUDY    76  47  35 S14       29.75F
WAXAHACHIE     CLOUDY    74  51  43 S15G21    29.76F
CLEBURNE       MOSUNNY   77  50  38 S17G24    29.75F
GRANBURY       CLOUDY    80  49  33 SE14G21   29.72F
$$

TXZ083>090-098>101-113>116-127>130-139>142-154-155-242300-
WESTERN NORTH TEXAS

CITY           SKY/WX    TMP DP  RH WIND       PRES   REMARKS
WICHITA FALLS  SUNNY     81  50  33 S24G37    29.61F
WF-KICKAPOO    SUNNY     81  51  35 S23G29    29.63F
VERNON         SUNNY     85  40  20 S23G31    29.60F
ABILENE        SUNNY     83  49  30 S20G31    29.67F
GRAHAM         SUNNY     82  51  33 SE16G24   29.65F
BRECKENRIDGE   SUNNY     83  48  28 S18G28    29.67F HAZE
CISCO          CLOUDY    81  50  34 S21G29    29.71F
RANGER         SUNNY     78  50  37 S17G23    29.72F
MINERAL WELLS  CLOUDY    80  48  32 S17G29    29.69F
STEPHENVILLE   CLOUDY    76  48  37 S13G20    29.76F
COMANCHE       MOSUNNY   79  51  37 S16       29.73F
COLEMAN        CLOUDY    83  48  29 S15G21    29.72F
$$

TXZ143>147-156>162-174-175-242300-
CENTRAL TEXAS

CITY           SKY/WX    TMP DP  RH WIND       PRES   REMARKS
WACO           CLOUDY    77  52  41 S16       29.76F
WACO-TSTC      SUNNY     77  48  36 S13       29.76F
WACO-MCGREGOR  MOSUNNY   79  52  38 S16G22    29.76F
HILLSBORO      SUNNY     76  52  42 S16G22    29.76F
CORSICANA      CLOUDY    78  50  37 S13       29.78F
MEXIA          CLOUDY    75  50  41 SE9G17    29.77F
HEARNE         SUNNY     78  49  36 S10G18    29.79F
CAMERON        SUNNY     79  51  38 SE12G18   29.77F
TEMPLE         SUNNY     78  52  40 S18       29.77F
KILLEEN        SUNNY     78  49  35 SE16      29.74F
KILLEEN-SKYLRK SUNNY     80  52  37 S14       29.76F
FORT HOOD      SUNNY     80  49  33 S15G21    29.73F
GATESVILLE     SUNNY     79  48  34 S8        29.77F
HAMILTON       SUNNY     80  49  34 S15G21    29.75F
LAMPASAS       SUNNY     80  53  39 S10       29.74F
$$

TXZ095>097-106>112-122>126-135>138-148>153-164>167-242300-
EAST TEXAS

CITY           SKY/WX    TMP DP  RH WIND       PRES   REMARKS
PARIS          SUNNY     75  46  35 S16       29.76F
MOUNT PLEASANT SUNNY     77  46  33 S14       29.78F
GILMER         CLOUDY    76  45  32 SE6       29.77F
MINEOLA        CLOUDY    75  48  38 S10       29.75F
TYLER          SUNNY     77  48  35 S12       29.77F
LONGVIEW       SUNNY     78  48  34 S9        29.77F
MARSHALL       CLOUDY    76  39  25 S6        29.80F
ATHENS         SUNNY     77  46  33 S9G16     29.76F
PALESTINE      SUNNY     76  52  43 S8        29.80F
JACKSONVILLE   SUNNY     77  50  38 S8        29.81F
HENDERSON      SUNNY     78  46  31 S9        29.79F
CENTER         CLEAR     82  47  29 SE5       29.80F
NACOGDOCHES    SUNNY     77  48  36 S10       29.78F
LUFKIN         SUNNY     78  48  34 SE8       29.79F
$$

SUPPLEMENTAL OBSERVATIONS (CENTRAL)

CITY           SKY/WX    TMP DP  RH WIND       PRES   REMARKS
$$

SUPPLEMENTAL OBSERVATIONS (WEST)

CITY           SKY/WX    TMP DP  RH WIND       PRES   REMARKS
$$

SUPPLEMENTAL OBSERVATIONS (EAST)

CITY           SKY/WX    TMP DP  RH WIND       PRES   REMARKS
$$

SUPPLEMENTAL OBSERVATIONS ARE A COLLECTION OF AUTOMATED INSTRUMENTS
THAT ARE MAINTAINED BY A VARIETY OF FEDERAL AND STATE AGENCIES.
CERTAIN ELEMENTS...SUCH AS HUMIDITY VALUES AND SUSTAINED WIND
SPEEDS...MAY BE APPROXIMATED.




USA.gov is the U.S. government's official web portal to all federal, state and local government web resources and services.